San Bernardino, CA

8:50 PM PST on December 13, 2019 (GMT -0800)
San Bernardino International

Weather History for KSBD - November, 2019

Change the Weather History Date:

Wednesday, November 13, 2019

  Actual Average Record
Temperature  
Mean Temperature 66 °F -  
Max Temperature 84 °F 73 °F 89 °F (2013)
Min Temperature 48 °F 45 °F 40 °F (2018)
Cooling Degree Days 1    
Growing Degree Days 16 (Base 50)    
Moisture  
Dew Point 33 °F    
Average Humidity 39    
Maximum Humidity 59    
Minimum Humidity 12    
Precipitation  
Precipitation 0.00 in - - ()
Sea Level Pressure  
Sea Level Pressure 30.01 in    
Wind  
Wind Speed 1 mph ()    
Max Wind Speed 8 mph    
Max Gust Speed -    
Visibility 8.7 miles    
Events      
Averages and records for this station are not official NWS values.
T = Trace of Precipitation, MM = Missing Value Source: Averaged Metar Reports

Daily Weather History Graph

Daily Weather History Graph

Search for Another Location

Airport or City:

Astronomy

Nov. 13, 2019 Rise Set
Actual Time 6:19 AM PST 4:46 PM PST
Civil Twilight 5:53 AM PST 5:12 PM PST
Nautical Twilight 5:22 AM PST 5:43 PM PST
Astronomical Twilight 4:53 AM PST 6:12 PM PST
Moon 5:54 PM PST (11/13) 7:16 AM PST (11/13)
Length of Visible Light 11h 19m
Length of Day
10h 26m
Full, 98% of the Moon is Illuminated
Nov 13
Full
Nov 19
Last Quarter
Nov 26
New
Dec 3
First Quarter
Dec 11
Full

Hourly Weather History & Observations

Time (PST) Temp. Dew Point Humidity Pressure Visibility Wind Dir Wind Speed Gust Speed Precip Events Conditions
12:00 AM 53.2 °F 28.6 °F 39% 30.03 in 10.0 mi Calm Calm - N/A   Clear
12:24 AM 52.3 °F 28.0 °F 39% 30.03 in 10.0 mi Calm Calm - N/A   Clear
12:42 AM 56.1 °F 30.2 °F 37% 30.02 in 10.0 mi Calm Calm - N/A   Clear
1:00 AM 56.5 °F 30.0 °F 36% 30.02 in 10.0 mi Calm Calm - N/A   Clear
1:20 AM 56.8 °F 30.2 °F 36% 30.02 in 10.0 mi Calm Calm - N/A   Clear
1:40 AM 50.9 °F 27.7 °F 41% 30.02 in 10.0 mi ENE 4.6 mph - N/A   Clear
2:04 AM 50.0 °F 28.2 °F 43% 30.01 in 10.0 mi Calm Calm - N/A   Clear
2:22 AM 54.1 °F 28.8 °F 38% 30.01 in 10.0 mi Calm Calm - N/A   Clear
2:40 AM 53.2 °F 28.2 °F 38% 30.01 in 10.0 mi Calm Calm - N/A   Clear
3:00 AM 53.8 °F 28.6 °F 38% 30.00 in 10.0 mi Calm Calm - N/A   Clear
3:20 AM 53.8 °F 30.0 °F 40% 30.00 in 5.0 mi Calm Calm - N/A   Haze
3:44 AM 55.2 °F 32.0 °F 41% 30.00 in 10.0 mi Calm Calm - N/A   Clear
4:02 AM 55.4 °F 32.7 °F 42% 30.00 in 10.0 mi Calm Calm - N/A   Clear
4:20 AM 53.4 °F 32.0 °F 44% 30.00 in 10.0 mi Calm Calm - N/A   Clear
4:40 AM 52.7 °F 31.3 °F 44% 30.00 in 10.0 mi Calm Calm - N/A   Clear
5:00 AM 53.6 °F 30.4 °F 41% 30.00 in 10.0 mi Calm Calm - N/A   Clear
5:24 AM 48.7 °F 28.6 °F 46% 30.00 in 10.0 mi NE 3.5 mph - N/A   Clear
5:42 AM 49.3 °F 29.8 °F 47% 30.00 in 10.0 mi NE 4.6 mph - N/A   Clear
7:00 AM 53.6 °F 28.4 °F 38% 30.02 in 10.0 mi Calm Calm - N/A   Clear
7:48 AM 62.6 °F 30.2 °F 30% 30.04 in 10.0 mi Calm Calm - N/A   Clear
9:59 AM 75.2 °F 28.4 °F 18% 30.03 in 10.0 mi Calm Calm - N/A   Clear
10:51 AM 80.6 °F 28.4 °F 15% 30.02 in 10.0 mi Calm Calm - N/A   Scattered Clouds
11:49 AM 82.4 °F 26.6 °F 13% 29.99 in 7.0 mi Calm Calm - N/A   Mostly Cloudy
12:48 PM 84.2 °F 26.6 °F 12% 29.97 in 7.0 mi Calm Calm - N/A   Mostly Cloudy
1:49 PM 82.4 °F 26.6 °F 13% 29.96 in 10.0 mi SW 5.8 mph - N/A   Mostly Cloudy
2:56 PM 84.2 °F 28.4 °F 13% 29.96 in 10.0 mi SW 8.1 mph - N/A   Mostly Cloudy
3:58 PM 80.6 °F 26.6 °F 14% 29.96 in 10.0 mi WSW 8.1 mph - N/A   Mostly Cloudy
5:48 PM 69.8 °F 48.2 °F 46% 30.00 in 10.0 mi West 4.6 mph - N/A   Mostly Cloudy
6:47 PM 68.0 °F 48.2 °F 49% 30.01 in 4.0 mi SSW 4.6 mph - N/A   Haze
7:47 PM 64.4 °F 50.0 °F 59% 30.03 in 4.0 mi WSW 3.5 mph - N/A   Haze
8:50 PM 62.6 °F 46.4 °F 55% 30.04 in 5.0 mi Calm Calm - N/A   Haze
9:40 PM 59.9 °F 42.6 °F 53% 30.05 in 7.0 mi Calm Calm - N/A   Clear
9:45 PM 58.6 °F 42.1 °F 54% 30.05 in 7.0 mi Calm Calm - N/A   Clear
10:03 PM 58.1 °F 40.8 °F 53% 30.05 in 7.0 mi Calm Calm - N/A   Clear
10:21 PM 57.6 °F 40.1 °F 52% 30.05 in 7.0 mi Calm Calm - N/A   Clear
10:40 PM 56.5 °F 40.5 °F 55% 30.05 in 7.0 mi Calm Calm - N/A   Clear
11:00 PM 55.0 °F 40.3 °F 58% 30.04 in 7.0 mi ENE 3.5 mph - N/A   Clear
11:43 PM 55.6 °F 41.5 °F 59% 30.05 in 5.0 mi Calm Calm - N/A   Haze